NSZ8286 LYTV-EGSS

Flight info

Callsign NSZ8286
Flight time N/A
Altitude 30000
Route NIK L604 GACMO/N0465F360 DCT TIVNU DCT TEBLI DCT PODET/N0468F380 DCT SETAL DCT SIMBA DCT MAMOR DCT INBED DCT BOMBI DCT ADKUV DCT LENDO DCT SOGRI DCT HELEN DCT KOZUF DCT IMPOH DCT SASKI L608 SUMUM Y6 TOSVA
Aircraft B738/M-SDE2E3FGHIRWXY/LB1

Departure

Time 2026-04-29 20:28
Airport Tivat Airport (LYTV)

Arrival

Time N/A
Airport London Stansted Airport (EGSS)
Time Latitude Longitude Altitude Speed Heading
2026-04-29 20:12 42.41296 18.71598 5 ft 0 kts 186°
2026-04-29 20:22 42.41295 18.71598 5 ft 0 kts 185°
2026-04-29 20:23 42.41293 18.71597 5 ft 2 kts 185°
2026-04-29 20:23 42.41245 18.71601 6 ft 9 kts 159°
2026-04-29 20:23 42.41193 18.71649 6 ft 9 kts 140°
2026-04-29 20:23 42.41147 18.71702 6 ft 9 kts 140°
2026-04-29 20:24 42.41103 18.71756 5 ft 8 kts 137°
2026-04-29 20:24 42.41060 18.71807 6 ft 8 kts 140°
2026-04-29 20:24 42.41015 18.71853 6 ft 8 kts 158°
2026-04-29 20:24 42.40970 18.71821 5 ft 8 kts 225°
2026-04-29 20:25 42.40920 18.71802 5 ft 10 kts 157°
2026-04-29 20:25 42.40819 18.71914 1 ft 29 kts 139°
2026-04-29 20:25 42.40628 18.72137 -1 ft 42 kts 139°
2026-04-29 20:25 42.40412 18.72390 2 ft 39 kts 139°
2026-04-29 20:26 42.40222 18.72614 4 ft 35 kts 139°
2026-04-29 20:26 42.40041 18.72826 0 ft 34 kts 139°
2026-04-29 20:26 42.39869 18.73028 -1 ft 32 kts 139°
2026-04-29 20:26 42.39710 18.73214 2 ft 28 kts 139°
2026-04-29 20:27 42.39620 18.73268 1 ft 11 kts 153°
2026-04-29 20:27 42.39622 18.73307 2 ft 5 kts 356°
2026-04-29 20:27 42.39645 18.73288 2 ft 0 kts 319°
2026-04-29 20:27 42.39708 18.73215 2 ft 44 kts 319°
2026-04-29 20:28 42.40152 18.72693 4 ft 122 kts 319°
2026-04-29 20:28 42.40961 18.71741 68 ft 180 kts 319°
2026-04-29 20:28 42.41992 18.70537 606 ft 205 kts 319°
2026-04-29 20:28 42.42883 18.69000 1289 ft 220 kts 290°
2026-04-29 20:29 42.42915 18.66910 1812 ft 232 kts 249°
2026-04-29 20:29 42.41889 18.65211 2320 ft 241 kts 207°
2026-04-29 20:29 42.40395 18.64271 3322 ft 238 kts 202°
2026-04-29 20:29 42.38915 18.63252 4271 ft 240 kts 209°
2026-04-29 20:30 42.37462 18.62118 5207 ft 241 kts 210°
2026-04-29 20:30 42.36005 18.60994 6171 ft 239 kts 211°
2026-04-29 20:30 42.34584 18.59882 7114 ft 238 kts 212°
2026-04-29 20:30 42.33129 18.58792 7945 ft 239 kts 202°
2026-04-29 20:31 42.31453 18.58458 8623 ft 255 kts 178°
2026-04-29 20:31 42.29652 18.58809 9258 ft 265 kts 173°
2026-04-29 20:31 42.27816 18.59218 10056 ft 269 kts 174°
2026-04-29 20:31 42.25965 18.59547 10897 ft 268 kts 175°
2026-04-29 20:32 42.24088 18.59880 11520 ft 278 kts 176°
2026-04-29 20:32 42.22144 18.60316 12206 ft 284 kts 164°
2026-04-29 20:32 42.20363 18.61471 13114 ft 288 kts 154°
2026-04-29 20:32 42.19196 18.62362 13506 ft 294 kts 155°
2026-04-29 20:33 42.16743 18.64072 14450 ft 296 kts 157°
2026-04-29 20:33 42.14929 18.65279 15271 ft 293 kts 158°
2026-04-29 20:33 42.13055 18.66481 15792 ft 303 kts 159°
2026-04-29 20:33 42.11152 18.67781 16393 ft 312 kts 148°
2026-04-29 20:34 42.09619 18.69905 17031 ft 322 kts 123°
2026-04-29 20:34 42.08870 18.72745 17652 ft 329 kts 93°
2026-04-29 20:34 42.09202 18.75789 18153 ft 332 kts 63°
2026-04-29 20:34 42.10481 18.78279 18841 ft 319 kts 35°
2026-04-29 20:35 42.12369 18.79670 19414 ft 309 kts
2026-04-29 20:35 42.14512 18.79821 19582 ft 315 kts 349°
2026-04-29 20:35 42.16735 18.79566 20068 ft 322 kts 352°
2026-04-29 20:35 42.18235 18.79527 20444 ft 328 kts 356°
2026-04-29 20:36 42.20542 18.79672 20940 ft 336 kts 358°
2026-04-29 20:36 42.22891 18.79843 21510 ft 339 kts 357°
2026-04-29 20:36 42.25265 18.79958 22013 ft 345 kts 356°
2026-04-29 20:36 42.27673 18.80028 22631 ft 346 kts 355°
2026-04-29 20:37 42.30074 18.80262 23385 ft 348 kts
2026-04-29 20:37 42.32474 18.80825 23972 ft 352 kts
2026-04-29 20:37 42.34888 18.81493 24410 ft 356 kts
2026-04-29 20:37 42.37336 18.82182 24821 ft 362 kts
2026-04-29 20:38 42.39822 18.82870 25275 ft 365 kts
2026-04-29 20:38 42.42317 18.83545 25810 ft 366 kts
2026-04-29 20:38 42.44824 18.84200 26336 ft 366 kts
2026-04-29 20:38 42.47303 18.84795 26790 ft 368 kts
2026-04-29 20:39 42.49847 18.85364 27154 ft 373 kts
2026-04-29 20:39 42.52426 18.85995 27520 ft 379 kts
2026-04-29 20:39 42.55011 18.86665 28069 ft 378 kts
2026-04-29 20:39 42.57587 18.87351 28622 ft 378 kts
2026-04-29 20:40 42.60185 18.88028 28939 ft 383 kts
2026-04-29 20:40 42.62819 18.88683 29318 ft 386 kts
2026-04-29 20:40 42.65470 18.89324 29769 ft 388 kts
2026-04-29 20:40 42.68148 18.89963 30081 ft 393 kts
2026-04-29 20:41 42.70855 18.90599 30383 ft 396 kts
2026-04-29 20:41 42.73576 18.91312 30765 ft 398 kts
2026-04-29 20:41 42.76303 18.91846 30986 ft 396 kts 354°
2026-04-29 20:41 42.79029 18.91535 31149 ft 391 kts 341°
2026-04-29 20:42 42.81591 18.90363 31343 ft 387 kts 327°
2026-04-29 20:42 42.83787 18.88350 31429 ft 386 kts 314°
2026-04-29 20:42 42.85743 18.85862 31808 ft 384 kts 310°
2026-04-29 20:42 42.87603 18.83234 32051 ft 387 kts 311°
2026-04-29 20:43 42.91761 18.78295 32246 ft 404 kts 318°
2026-04-29 20:43 42.94013 18.75971 32526 ft 406 kts 319°
2026-04-29 20:43 42.96290 18.73701 32947 ft 404 kts 320°
2026-04-29 20:44 42.98558 18.71453 33392 ft 402 kts 319°
2026-04-29 20:44 43.00809 18.69208 33756 ft 400 kts 319°
2026-04-29 20:44 43.03053 18.66956 34039 ft 402 kts 319°
2026-04-29 20:44 43.05331 18.64678 34058 ft 409 kts 319°
2026-04-29 20:45 43.09969 18.60093 34237 ft 418 kts 320°
2026-04-29 20:45 43.12332 18.57754 34359 ft 421 kts 320°
2026-04-29 20:45 43.14716 18.55424 34530 ft 423 kts 322°
2026-04-29 20:46 43.17222 18.53292 34801 ft 424 kts 324°
2026-04-29 20:46 43.19773 18.51265 35079 ft 423 kts 325°
2026-04-29 20:46 43.22336 18.49274 35304 ft 423 kts 326°
2026-04-29 20:46 43.24898 18.47286 35532 ft 423 kts 326°
2026-04-29 20:47 43.27459 18.45286 35783 ft 422 kts 325°
2026-04-29 20:47 43.30006 18.43282 36037 ft 422 kts 325°
2026-04-29 20:47 43.32546 18.41268 36253 ft 421 kts 325°
2026-04-29 20:47 43.35083 18.39246 36473 ft 421 kts 325°
2026-04-29 20:48 43.37619 18.37218 36638 ft 422 kts 325°
2026-04-29 20:48 43.40157 18.35184 36860 ft 421 kts 325°
2026-04-29 20:48 43.42689 18.33153 37081 ft 421 kts 325°
2026-04-29 20:48 43.45191 18.31143 37112 ft 423 kts 325°
2026-04-29 20:49 43.50300 18.27033 37132 ft 427 kts 325°
2026-04-29 20:49 43.55443 18.22890 37160 ft 428 kts 325°
2026-04-29 20:50 43.60589 18.18737 37166 ft 428 kts 325°
2026-04-29 20:50 43.65730 18.14579 37188 ft 428 kts 325°
2026-04-29 20:51 43.70872 18.10413 37173 ft 428 kts 325°
2026-04-29 20:51 43.76002 18.06247 37184 ft 427 kts 324°
2026-04-29 20:52 43.81119 18.02084 37184 ft 426 kts 324°
2026-04-29 20:52 43.86222 17.97924 37174 ft 426 kts 324°
2026-04-29 20:53 43.91285 17.93787 37187 ft 424 kts 324°
2026-04-29 20:53 43.96361 17.89632 37191 ft 422 kts 324°
2026-04-29 20:54 44.03938 17.83414 37204 ft 422 kts 324°
2026-04-29 20:55 44.08982 17.79264 37216 ft 421 kts 324°
2026-04-29 20:55 44.14026 17.75105 37220 ft 421 kts 324°
2026-04-29 20:56 44.19072 17.70937 37256 ft 422 kts 324°
2026-04-29 20:56 44.24121 17.66757 37236 ft 422 kts 324°
2026-04-29 20:57 44.29156 17.62583 37229 ft 421 kts 324°
2026-04-29 20:57 44.34197 17.58393 37234 ft 422 kts 324°
2026-04-29 20:58 44.39239 17.54194 37234 ft 421 kts 324°
2026-04-29 20:58 44.44241 17.50021 37235 ft 422 kts 324°
2026-04-29 20:59 44.49280 17.45809 37230 ft 421 kts 324°
2026-04-29 20:59 44.54293 17.41608 37239 ft 419 kts 324°
2026-04-29 21:00 44.59295 17.37409 37256 ft 418 kts 323°
2026-04-29 21:00 44.64296 17.33202 37290 ft 419 kts 324°
2026-04-29 21:01 44.69298 17.28985 37274 ft 419 kts 324°
2026-04-29 21:01 44.74304 17.24756 37257 ft 420 kts 323°
2026-04-29 21:02 44.79274 17.20550 37264 ft 419 kts 324°
2026-04-29 21:02 44.84277 17.16306 37264 ft 419 kts 323°
2026-04-29 21:03 44.89281 17.12053 37270 ft 420 kts 324°
2026-04-29 21:03 44.94279 17.07790 37273 ft 419 kts 322°
2026-04-29 21:04 44.98670 17.02572 37260 ft 409 kts 308°
2026-04-29 21:04 45.02389 16.96495 37261 ft 408 kts 308°
2026-04-29 21:05 45.06115 16.90434 37259 ft 408 kts 308°
2026-04-29 21:05 45.09854 16.84385 37268 ft 408 kts 308°
2026-04-29 21:06 45.13571 16.78369 37282 ft 408 kts 308°
2026-04-29 21:06 45.17306 16.72309 37260 ft 408 kts 308°
2026-04-29 21:07 45.21212 16.66447 37257 ft 412 kts 317°
2026-04-29 21:07 45.25832 16.61554 37276 ft 414 kts 319°
2026-04-29 21:08 45.30463 16.56689 37228 ft 415 kts 319°
2026-04-29 21:08 45.32794 16.54222 36938 ft 418 kts 319°
2026-04-29 21:08 45.35119 16.51752 36688 ft 415 kts 319°
2026-04-29 21:08 45.37394 16.49333 36462 ft 411 kts 319°
2026-04-29 21:09 45.39682 16.46892 36320 ft 410 kts 319°
2026-04-29 21:09 45.44272 16.41981 36288 ft 414 kts 319°
2026-04-29 21:10 45.48881 16.37041 36277 ft 414 kts 319°
2026-04-29 21:10 45.53467 16.32118 36280 ft 412 kts 319°
2026-04-29 21:11 45.58034 16.27204 36284 ft 411 kts 319°
2026-04-29 21:11 45.62598 16.22283 36284 ft 411 kts 319°
2026-04-29 21:12 45.67162 16.17350 36292 ft 411 kts 319°
2026-04-29 21:12 45.71699 16.12438 36295 ft 412 kts 319°
2026-04-29 21:13 45.76276 16.07471 36294 ft 412 kts 319°
2026-04-29 21:13 45.80848 16.02500 36293 ft 413 kts 319°
2026-04-29 21:14 45.85423 15.97515 36317 ft 413 kts 319°
2026-04-29 21:14 45.90010 15.92505 36305 ft 415 kts 319°
2026-04-29 21:15 45.94605 15.87477 36288 ft 415 kts 319°
2026-04-29 21:15 45.99165 15.82478 36289 ft 414 kts 319°
2026-04-29 21:16 46.03742 15.77446 36295 ft 414 kts 319°
2026-04-29 21:16 46.08317 15.72407 36301 ft 414 kts 319°
2026-04-29 21:17 46.12902 15.67345 36309 ft 416 kts 319°
2026-04-29 21:17 46.17493 15.62244 36303 ft 417 kts 317°
2026-04-29 21:18 46.21906 15.56821 36301 ft 416 kts 315°
2026-04-29 21:18 46.26217 15.51314 36302 ft 417 kts 315°
2026-04-29 21:19 46.30569 15.45768 36301 ft 417 kts 315°
2026-04-29 21:19 46.34935 15.40229 36315 ft 418 kts 316°
2026-04-29 21:20 46.39315 15.34675 36317 ft 420 kts 316°
2026-04-29 21:20 46.43715 15.29086 36311 ft 421 kts 316°
2026-04-29 21:21 46.48130 15.23467 36306 ft 423 kts 316°
2026-04-29 21:21 46.52554 15.17821 36316 ft 423 kts 316°
2026-04-29 21:22 46.56980 15.12162 36306 ft 424 kts 316°
2026-04-29 21:22 46.61405 15.06490 36309 ft 425 kts 316°
2026-04-29 21:23 46.65840 15.00792 36316 ft 426 kts 316°
2026-04-29 21:23 46.70290 14.95062 36315 ft 427 kts 316°
2026-04-29 21:24 46.74720 14.89344 36369 ft 425 kts 316°
2026-04-29 21:24 46.78407 14.84576 36318 ft 426 kts 316°
2026-04-29 21:25 46.83552 14.77907 36301 ft 425 kts 316°
2026-04-29 21:25 46.87262 14.73086 36307 ft 426 kts 317°
2026-04-29 21:26 46.91659 14.67361 36304 ft 427 kts 317°
2026-04-29 21:26 46.96104 14.61560 36301 ft 428 kts 317°
2026-04-29 21:27 47.00554 14.55740 36298 ft 429 kts 317°
2026-04-29 21:27 47.05006 14.49901 36277 ft 429 kts 317°
2026-04-29 21:28 47.09459 14.44049 36293 ft 430 kts 317°
2026-04-29 21:28 47.13899 14.38200 36313 ft 433 kts 317°
2026-04-29 21:29 47.18386 14.32275 36306 ft 434 kts 317°
2026-04-29 21:29 47.22874 14.26336 36303 ft 434 kts 317°
2026-04-29 21:30 47.27468 14.20544 36279 ft 435 kts 320°
2026-04-29 21:30 47.32157 14.14920 36320 ft 434 kts 320°
2026-04-29 21:31 47.36847 14.09263 36323 ft 435 kts 321°
2026-04-29 21:31 47.41519 14.03569 36322 ft 436 kts 320°
2026-04-29 21:32 47.46200 13.97831 36326 ft 437 kts 320°
2026-04-29 21:32 47.50868 13.92089 36326 ft 436 kts 320°
2026-04-29 21:33 47.55507 13.86370 36329 ft 437 kts 320°
2026-04-29 21:33 47.60176 13.80602 36324 ft 437 kts 320°
2026-04-29 21:34 47.64853 13.74810 36331 ft 438 kts 321°
2026-04-29 21:34 47.69533 13.69000 36332 ft 439 kts 321°
2026-04-29 21:35 47.74215 13.63172 36318 ft 440 kts 321°
2026-04-29 21:35 47.78904 13.57323 36306 ft 440 kts 321°
2026-04-29 21:36 47.83569 13.51421 36267 ft 442 kts 315°
2026-04-29 21:36 47.85365 13.47701 35228 ft 451 kts 295°
2026-04-29 21:36 47.86103 13.43160 34295 ft 454 kts 277°
2026-04-29 21:36 47.86170 13.38416 32711 ft 463 kts 272°
2026-04-29 21:37 47.86059 13.33617 31514 ft 463 kts 271°
2026-04-29 21:37 47.85969 13.28851 30360 ft 459 kts 274°
2026-04-29 21:37 47.86323 13.24154 28642 ft 457 kts 287°
2026-04-29 21:37 47.87336 13.19705 27457 ft 447 kts 298°
2026-04-29 21:38 47.88807 13.15818 27500 ft 410 kts 308°
2026-04-29 21:38 47.90458 13.12608 27717 ft 376 kts 312°
2026-04-29 21:38 47.92143 13.09554 26079 ft 391 kts 316°
2026-04-29 21:38 47.94198 13.06839 24657 ft 397 kts 329°
2026-04-29 21:39 47.96599 13.04895 23836 ft 388 kts 339°
2026-04-29 21:39 47.99058 13.03555 23527 ft 365 kts 346°
2026-04-29 21:39 48.01489 13.02811 22365 ft 363 kts 353°
2026-04-29 21:39 48.04064 13.02418 20634 ft 382 kts 357°
2026-04-29 21:40 48.06777 13.02266 19419 ft 385 kts 359°
2026-04-29 21:40 48.09382 13.02217 18785 ft 372 kts
2026-04-29 21:40 48.11919 13.01893 17994 ft 362 kts 347°
2026-04-29 21:40 48.14262 13.00513 16801 ft 366 kts 332°
2026-04-29 21:41 48.16259 12.98092 15490 ft 376 kts 314°
2026-04-29 21:41 48.17629 12.94721 14254 ft 386 kts 293°
2026-04-29 21:41 48.18122 12.90785 13089 ft 392 kts 274°
2026-04-29 21:41 48.17790 12.86775 12416 ft 383 kts 257°
2026-04-29 21:42 48.16742 12.83211 11954 ft 370 kts 238°
2026-04-29 21:42 48.15128 12.80427 11207 ft 366 kts 222°
2026-04-29 21:42 48.13005 12.78355 10323 ft 366 kts 201°
2026-04-29 21:42 48.10544 12.77554 9560 ft 358 kts 181°
2026-04-29 21:43 48.08142 12.77997 9120 ft 339 kts 159°
2026-04-29 21:43 48.06094 12.79562 9001 ft 323 kts 142°
2026-04-29 21:43 48.04372 12.81528 8770 ft 303 kts 138°
2026-04-29 21:43 48.02741 12.83475 8214 ft 299 kts 137°
2026-04-29 21:44 48.01132 12.85439 7564 ft 297 kts 137°
2026-04-29 21:44 47.99527 12.87373 6875 ft 295 kts 136°
2026-04-29 21:44 47.97986 12.89361 6142 ft 293 kts 138°
2026-04-29 21:44 47.96264 12.90734 6250 ft 267 kts 157°
2026-04-29 21:45 47.94513 12.91187 6314 ft 246 kts 167°
2026-04-29 21:45 47.92900 12.91366 6215 ft 221 kts 167°
2026-04-29 21:45 47.91508 12.91732 6114 ft 190 kts 150°
2026-04-29 21:45 47.90408 12.92660 5700 ft 175 kts 133°
2026-04-29 21:46 47.89504 12.93726 5375 ft 161 kts 129°
2026-04-29 21:46 47.88633 12.94710 5060 ft 146 kts 134°
2026-04-29 21:46 47.87819 12.95322 4825 ft 127 kts 139°
2026-04-29 21:46 47.86977 12.95787 4272 ft 128 kts 141°
2026-04-29 21:47 47.86120 12.96235 3669 ft 134 kts 141°
2026-04-29 21:47 47.85238 12.96702 3129 ft 132 kts 137°
2026-04-29 21:47 47.84390 12.97201 2624 ft 130 kts 137°
2026-04-29 21:47 47.83570 12.97768 2145 ft 128 kts 155°
2026-04-29 21:48 47.82688 12.98224 1935 ft 139 kts 151°
2026-04-29 21:48 47.81790 12.98829 1827 ft 141 kts 153°
2026-04-29 21:48 47.80941 12.99376 1599 ft 133 kts 154°
2026-04-29 21:48 47.80067 12.99922 1438 ft 132 kts 152°
2026-04-29 21:49 47.79330 13.00407 1424 ft 99 kts 156°
2026-04-29 21:49 47.78832 13.00716 1422 ft 56 kts 155°
2026-04-29 21:49 47.78621 13.00831 1420 ft 28 kts 181°
2026-04-29 21:49 47.78553 13.00627 1421 ft 27 kts 315°
2026-04-29 21:50 47.78716 13.00517 1419 ft 25 kts 338°
2026-04-29 21:50 47.78870 13.00421 1420 ft 23 kts 336°
2026-04-29 21:50 47.78954 13.00270 1421 ft 20 kts 274°
2026-04-29 21:50 47.78961 13.00131 1421 ft 11 kts 276°
2026-04-29 21:51 47.78972 13.00036 1421 ft 0 kts 281°
2026-04-29 21:52 47.78973 13.00035 1421 ft 2 kts 287°
2026-04-29 21:52 47.79035 13.00014 1421 ft 17 kts 357°
2026-04-29 21:52 47.79159 13.00000 1421 ft 18 kts 349°
2026-04-29 21:53 47.79274 12.99945 1421 ft 17 kts 342°
2026-04-29 21:53 47.79330 12.99820 1421 ft 12 kts 243°
2026-04-29 21:53 47.79315 12.99782 1421 ft 0 kts 240°
2026-04-29 21:55 47.79313 12.99774 1421 ft 0 kts 293°
2026-04-29 21:58 47.79307 12.99796 1421 ft 3 kts 293°
2026-04-29 21:58 47.79308 12.99793 1421 ft 8 kts 293°
2026-04-29 21:59 47.79313 12.99774 1421 ft 3 kts 293°